Weather Roundup
Issued by NWS

Home | Current Version | Previous Version | Text Only | Print | Product List | Glossary On
Versions: 1 2 3 4 5 6 7 8 9 10 11 12 13 14 15 16 17 18 19 20 21 22 23 24 25 26 27 28 29 30 31 32 33 34 35 36 37 38 39 40 41 42 43 44 45 46 47 48 49 50
082
NZUS93 KARX 291959
HRRWXR

CURRENT HOURLY OBSERVATIONS ACROSS
MUCH OF THE UPPER MISSISSIPPI VALLEY
NATIONAL WEATHER SERVICE LA CROSSE WI
300 PM CDT FRI APR 29 2016


...SOUTHEAST MINNESOTA...


CITY           SKY/WX    TMP DP  RH WIND       PRES   REMARKS
ROCHESTER      CLOUDY    48  39  71 E14       30.13F
ROCHESTER/MAYO CLOUDY    48  38  67 NE6       30.14R
WINONA         PTSUNNY   52  41  66 NE5       30.13F
AUSTIN         CLOUDY    48  39  71 E8        30.13R
ALBERT LEA     CLOUDY    50  39  66 E12       30.12R
DODGE CENTER   CLOUDY    52  41  66 E9        30.12R
PRESTON        CLOUDY    47  39  71 NE9       30.12S
OWATONNA       CLOUDY    52  37  58 E10       30.12R
FARIBAULT      SUNNY     55  37  50 NE13      30.11F
$$

...ELSEWHERE IN MINNESOTA...


CITY           SKY/WX    TMP DP  RH WIND       PRES   REMARKS
MINNEAPOLIS    MOSUNNY   56  36  47 NE12      30.11F
INTNL FALLS    SUNNY     55  31  39 VRB7G16   30.19F
DULUTH         MOSUNNY   51  30  44 E18       30.16F
RED WING       MOSUNNY   57  37  47 S12       30.10F
REDWOOD FALLS  PTSUNNY   54  36  50 E14       30.11F
MANKATO        MOSUNNY   55  37  50 SE8       30.12R
WORTHINGTON    CLOUDY    49  39  68 E12       30.13R
FAIRMONT       CLOUDY    50  37  62 E10       30.12S
$$

...SOUTHWEST WISCONSIN...


CITY           SKY/WX    TMP DP  RH WIND       PRES   REMARKS
LA CROSSE      CLOUDY    55  39  54 N8        30.12S
PRAIRIE DU CHI CLOUDY    51  35  54 E8        30.11S
BOSCOBEL       CLOUDY    53  37  54 NE8       30.12S
LONE ROCK      NOT AVBL
PLATTEVILLE    CLOUDY    49  39  70 NE6       30.11F
FORT MC COY    CLOUDY    52  39  62 N8        30.12F
MAUSTON-NEW LI CLOUDY    51  37  59 N3        30.11F
VIROQUA        CLOUDY    48  38  67 NE7       30.12R
WIS DELLS      CLOUDY    52  35  52 E8        30.11R
$$

...ELSEWHERE IN WISCONSIN...


CITY           SKY/WX    TMP DP  RH WIND       PRES   REMARKS
MILWAUKEE      MOSUNNY   46  38  73 NE10      30.13R
MADISON        CLOUDY    51  38  60 NE12      30.10S
GREEN BAY      CLOUDY    55  34  45 NE10      30.14F
EAU CLAIRE     NOT AVBL
BLACK RVR FLS  CLOUDY    53  37  53 NE8       30.12F
MEDFORD        CLOUDY    52  35  52 NE6       30.10F
WAUSAU         CLOUDY    56  35  45 SE7       30.09F
WIS RAPIDS     CLOUDY    55  33  43 E10       30.12F
MARSHFIELD     CLOUDY    54  37  52 MISG      30.10F
RICE LAKE      SUNNY     58  30  34 N10       30.12F
$$

...NORTHEAST IOWA...


CITY           SKY/WX    TMP DP  RH WIND       PRES   REMARKS
WATERLOO       CLOUDY    48  37  65 E7        30.12R
DUBUQUE        CLOUDY    47  38  71 E9        30.11S
DECORAH        CLOUDY    50  39  66 VRB6G16   30.10S
MASON CITY     CLOUDY    47  39  74 E9        30.14R
CHARLES CITY   CLOUDY    48  41  76 E10       30.12S
OELWEIN        CLOUDY    46  39  76 E8        30.13R
$$

...ELSEWHERE IN IOWA...


CITY           SKY/WX    TMP DP  RH WIND       PRES   REMARKS
DES MOINES     CLOUDY    50  41  71 NE9       30.08F
IOWA CITY      CLOUDY    51  42  71 E7        30.11R
FORT DODGE     CLOUDY    46  37  71 E13       30.12S
MARSHALLTOWN   CLOUDY    48  40  73 E9        30.10S
CEDAR RAPIDS   PTSUNNY   49  43  80 E3        30.10R
$$

...NORTHERN ILLINOIS...


CITY           SKY/WX    TMP DP  RH WIND       PRES   REMARKS
CHICAGO-OHARE  CLOUDY    50  39  66 NE9       30.09F
CHICAGO-MIDWAY CLOUDY    50  38  63 N10       30.10S
MOLINE         CLOUDY    52  41  66 VRB6      30.10R
ROCKFORD       CLOUDY    48  39  71 E8        30.14S
PEORIA         CLOUDY    55  44  66 VRB7      30.08F
$$

NOTE: "FAIR" INDICATES FEW OR NO CLOUDS BELOW 12,000 FEET WITH NO
SIGNIFICANT WEATHER AND/OR OBSTRUCTIONS TO VISIBILITY. WIND
SPEEDS ARE IN MILES-PER-HOUR.




USA.gov is the U.S. government's official web portal to all federal, state and local government web resources and services.